{"data":{"norad_id":56925,"intl_designator":"2023-083BB","name":"STARLINK-5733","alt_names":[],"object_type":"PAYLOAD","status":"ACTIVE","operator":null,"country":"US","launch_date":"2023-06-12","launch_site_code":"AFETR","launch_vehicle":null,"mission":null,"orbit_class":"UNKNOWN","rcs_meters":null,"size_class":null,"mass_kg":null,"dimensions":null,"purposes":["comms"],"wikipedia_slug":null,"has_3d_model":false,"image_url":null,"decayed_at":null,"tle_current":{"epoch":"2026-09-20T17:04:21.078048Z","epoch_age_seconds":99386,"freshness":"FRESH","line1":"1 56925U 23083BB  26263.71135507  .00000217  00000+0  17407-4 0  9993","line2":"2 56925  43.0031  49.3408 0001149 306.8970  53.1777 15.27575732181628","mean_motion":15.27575732,"eccentricity":0.0001149,"inclination_deg":43.0031,"raan_deg":49.3408,"arg_perigee_deg":306.897,"mean_anomaly_deg":53.1777,"bstar":1.7407e-5,"rev_number":18162,"period_min":94.267012092072,"perigee_km":482.27352424596,"apogee_km":483.85022774767,"semimajor_km":6861.1988759968,"source":"CELESTRAK","updated_at":"2026-09-21T09:00:33.547081Z"}}}